CAPE
0 2 6 21 34 17 0 21 6 15 12 0 0 0 0 0 0 0 0 4 0 0 0 0 9 2 26 3 0 0 0 0 0 0 0 3 6 4
6 0 0 0 0 0 1 10 10 11 13 0 0 0 0 0 0 0 0 21 1 0 0 0 19 16 35 27 0 0 0 0 0 0 0 0 1 4
0 0 0 0 0 0 0 0 0 21 14 0 0 0 0 0 0 0 0 0 0 2 0 1 0 13 30 25 19 8 0 0 0 0 0 0 0 0
0 0 0 0 0 0 0 0 0 0 0 0 0 0 0 0 0 0 0 0 0 0 13 4 0 0 0 2 3 7 0 0 0 0 0 0 0 0
0 0 0 0 0 0 0 0 0 0 0 0 0 0 0 0 0 0 0 0 0 0 0 0 2 12 16 12 7 6 0 0 0 0 0 0 0 0
0 0 0 0 0 0 0 0 0 0 0 0 0 0 0 0 0 0 0 0 0 0 0 0 0 0 0 1 1 4 0 0 0 0 0 0 0 0
0 0 0 0 0 0 2 0 0 0 0 0 0 0 0 0 0 0 0 0 0 0 0 0 0 0 0 0 0 0 0 0 0 0 0 0 0 0
0 0 0 0 0 0 0 4 3 6 0 0 0 0 0 0 0 0 0 0 0 0 0 0 0 0 0 0 0 0 0 0 0 0 0 0 0 0
0 0 0 0 0 0 0 0 1 8 4 3 3 0 0 0 0 0 0 0 0 0 0 0 0 0 0 0 0 0 0 0 0 0 0 0 0 0
0 0 0 0 0 2 0 10 0 0 0 0 0 0 0 0 0 0 0 0 0 0 0 0 0 0 0 0 0 0 0 0 0 0 0 0 0 0
0 0 0 0 5 22 21 4 2 0 0 0 2 5 7 13 21 10 3 10 0 0 0 0 0 0 0 0 0 0 0 0 0 0 0 0 0 0
0 0 2 4 11 8 1 0 1 0 0 0 0 0 0 0 0 0 0 0 0 0 0 0 0 0 0 0 0 0 0 0 0 0 0 6 0 0
0 0 1 4 19 11 8 1 0 0 1 1 0 0 0 0 1 1 0 0 0 0 0 0 0 0 0 0 0 0 0 0 0 0 0 1 4 5
0 1 0 13 11 11 9 10 2 0 0 0 0 1 1 1 1 1 2 2 0 0 0 0 0 0 0 0 0 0 0 0 0 0 0 0 0 0
0 9 3 3 3 3 10 8 2 0 0 0 0 3 1 0 0 0 0 0 0 0 0 0 0 0 2 0 0 0 0 0 0 1 1 0 0 0
0 0 0 1 0 5 2 3 2 1 2 1 0 0 0 0 0 0 0 0 0 0 0 0 0 0 0 0 0 0 0 4 0 0 0 0 0 1
0 0 0 0 0 1 0 1 2 1 1 1 0 0 0 1 0 0 0 0 0 0 0 0 0 0 0 0 0 0 0 0 0 0 0 0 0 0
0 0 0 0 0 0 0 0 0 0 1 1 0 0 0 0 0 0 0 0 0 0 0 0 0 0 1 0 1 0 0 0 0 0 1 0 0 1
0 0 0 0 0 0 0 0 0 0 0 0 0 0 0 0 0 0 0 0 0 0 0 0 0 0 0 0 0 0 0 0 0 0 0 0 0 0
0 0 0 0 0 0 0 0 0 0 0 0 0 0 0 0 0 0 0 0 0 0 0 0 0 0 0 0 0 0 0 0 0 1 0 0 0 0
0 0 0 0 0 0 0 0 0 0 0 0 0 0 0 0 0 0 0 0 0 0 0 0 0 0 0 0 0 0 0 0 0 0 0 0 0 0
0 0 0 0 0 0 0 0 0 0 0 0 0 0 0 0 0 0 0 0 0 0 0 0 0 0 0 2 0 0 0 0 0 0 0 0 0 0
0 0 0 0 0 0 0 0 0 0 0 0 0 0 0 0 0 0 0 0 0 0 0 0 0 0 0 0 0 0 0 0 0 0 0 0 0 0
CIN
-8 -61 -40 -13 -13 -23 -3 -0 -0 -0 -0 -4 -0 -0 -0 -0 -0 -0 -0 -60 -0 -0 -0 -0 -13 -10 -1 -11 -0 -0 -0 -0 -0 -0 -0 -17 -3 -9
-18 -0 -0 -0 -0 -0 -11 -12 -3 -1 -0 -0 -0 -0 -0 -0 -0 -0 -27 -28 -59 -0 -0 -1 -1 -2 -4 -8 -0 -0 -0 -0 -0 -0 -0 -0 -9 -0
-0 -0 -0 -0 -0 -0 -0 -0 -0 -10 -1 -0 -0 -0 -0 -0 -0 -0 -0 -0 -0 -38 -12 -56 -0 -11 -3 -22 -48 -54 -0 -0 -0 -0 -0 -0 -0 -0
-0 -0 -0 -0 -0 -0 -0 -0 -0 -0 -0 -0 -0 -0 -0 -0 -0 -0 -0 -0 -0 -0 -59 -73 -44 -0 -0 -31 -43 -99 -0 -0 -0 -0 -0 -0 -0 -0
-0 -0 -0 -0 -0 -0 -0 -0 -0 -0 -0 -0 -0 -0 -0 -0 -0 -0 -0 -0 -0 -0 -0 -0 -75 -77 -79 -92 -74 -99 -8 -0 -0 -0 -0 -0 -0 -0
-0 -0 -0 -0 -0 -0 -0 -0 -0 -0 -0 -0 -0 -0 -0 -0 -0 -0 -0 -0 -0 -0 -0 -0 -0 -0 -0 -50 -58 -117 -8 -0 -0 -0 -0 -0 -0 -0
-0 -0 -0 -0 -0 -0 -1 -0 -0 -0 -0 -0 -0 -0 -0 -0 -0 -0 -0 -0 -0 -0 -0 -0 -0 -0 -0 -0 -0 -0 -0 -0 -0 -0 -0 -0 -0 -0
-0 -0 -0 -0 -0 -0 -0 -0 -0 -1 -0 -1 -0 -0 -0 -0 -0 -0 -0 -0 -0 -0 -0 -0 -0 -0 -0 -0 -0 -0 -0 -0 -0 -0 -0 -0 -0 -0
-0 -0 -0 -0 -0 -0 -0 -0 -2 -2 -4 -6 -2 -0 -0 -0 -0 -0 -0 -0 -0 -0 -0 -0 -0 -0 -0 -0 -0 -0 -0 -0 -0 -0 -0 -0 -0 -0
-0 -0 -0 -0 -0 -1 -1 -1 -0 -0 -0 -0 -0 -0 -0 -0 -0 -0 -0 -0 -0 -0 -0 -2 -0 -0 -0 -0 -0 -0 -0 -0 -0 -0 -0 -0 -0 -0
-0 -0 -1 -3 -0 -0 -0 -0 -3 -0 -0 -0 -0 -2 -0 -3 -0 -3 -0 -0 -1 -0 -0 -0 -0 -0 -0 -0 -0 -0 -0 -0 -0 -0 -0 -0 -0 -0
-1 -1 -0 -0 -0 -0 -1 -0 -0 -0 -0 -0 -0 -0 -0 -0 -0 -0 -0 -0 -0 -1 -0 -0 -0 -0 -0 -0 -0 -0 -0 -0 -0 -0 -0 -8 -0 -0
-0 -0 -0 -0 -0 -0 -0 -0 -0 -0 -0 -0 -0 -0 -0 -0 -0 -0 -0 -0 -0 -0 -0 -0 -0 -0 -0 -0 -0 -0 -0 -0 -0 -0 -0 -20 -20 -4
-0 -0 -0 -0 -0 -0 -0 -0 -0 -0 -0 -0 -0 -0 -0 -0 -0 -0 -0 -0 -0 -0 -0 -0 -0 -0 -0 -0 -0 -0 -0 -0 -0 -0 -0 -0 -0 -0
-0 -0 -0 -0 -0 -0 -0 -0 -0 -0 -0 -0 -0 -0 -0 -0 -0 -0 -0 -0 -0 -0 -0 -0 -0 -0 -2 -0 -0 -0 -0 -0 -0 -0 -0 -0 -0 -0
-0 -0 -0 -0 -0 -0 -0 -0 -0 -0 -0 -0 -0 -0 -0 -0 -0 -0 -0 -0 -0 -0 -0 -0 -0 -0 -0 -0 -0 -0 -0 -1 -0 -0 -0 -0 -0 -0
-0 -0 -0 -0 -0 -0 -0 -0 -0 -0 -0 -0 -0 -0 -0 -0 -0 -0 -0 -0 -0 -0 -0 -1 -0 -0 -0 -0 -0 -0 -0 -0 -0 -0 -0 -0 -0 -1
-0 -0 -0 -0 -0 -0 -0 -0 -0 -0 -0 -0 -0 -0 -0 -0 -0 -0 -0 -0 -0 -0 -0 -0 -0 -0 -0 -0 -0 -0 -0 -0 -0 -0 -0 -0 -0 -0
-0 -0 -0 -0 -0 -0 -0 -0 -0 -0 -0 -0 -0 -0 -0 -0 -0 -0 -0 -0 -0 -0 -0 -0 -0 -0 -0 -0 -0 -0 -0 -0 -0 -0 -0 -0 -0 -0
-0 -0 -0 -0 -0 -0 -0 -0 -0 -0 -0 -0 -0 -0 -0 -0 -0 -0 -0 -0 -0 -0 -0 -0 -0 -0 -0 -0 -0 -0 -0 -0 -0 -0 -0 -0 -0 -0
-0 -0 -0 -0 -0 -0 -0 -0 -0 -0 -0 -0 -0 -0 -0 -0 -0 -0 -0 -0 -0 -0 -0 -0 -0 -0 -0 -0 -0 -0 -0 -0 -0 -0 -0 -0 -0 -0
-0 -0 -0 -0 -0 -0 -0 -0 -0 -0 -0 -0 -0 -0 -0 -0 -0 -0 -0 -0 -0 -0 -0 -0 -0 -0 -0 -3 -0 -0 -0 -0 -0 -0 -0 -0 -0 -0
-0 -0 -0 -0 -0 -0 -0 -0 -0 -0 -0 -0 -0 -0 -0 -0 -0 -0 -0 -0 -0 -0 -0 -0 -0 -0 -0 -0 -0 -0 -0 -0 -0 -0 -0 -0 -0 -0
Wind_Speed
5 4 3 3 3 1 1 5 2 4 3 2 2 5 6 4 6 5 4 6 6 1 8 15 14 12 9 8 8 7 4 2 2 5 8 10 9 6
3 4 3 3 4 4 4 5 5 5 5 3 4 4 5 5 6 5 5 8 8 9 7 6 12 17 15 13 11 10 9 7 2 1 4 7 7 7
4 4 5 5 3 4 4 4 6 6 8 4 2 2 3 5 6 5 5 4 3 11 10 11 12 14 22 17 12 12 11 8 6 4 3 1 2 4
4 4 4 6 6 5 4 6 6 8 6 6 4 2 2 3 4 5 5 6 5 8 12 15 14 13 16 15 12 12 11 9 8 8 7 6 4 4
4 4 5 6 7 6 7 7 6 7 4 4 4 3 4 2 2 4 4 4 5 10 9 7 12 13 12 11 13 12 13 13 12 10 10 9 7 7
5 5 6 6 7 7 7 6 5 4 4 4 3 3 3 4 1 2 4 2 3 5 7 8 8 7 5 3 6 8 11 11 12 11 9 7 7 9
5 5 5 9 15 13 7 6 6 5 5 5 5 2 3 2 3 2 2 4 3 4 4 3 2 3 4 6 5 6 6 7 10 10 10 10 10 11
6 6 6 10 9 15 17 18 14 8 8 6 6 5 6 4 3 3 3 2 4 3 3 3 1 3 3 3 7 7 6 6 8 10 11 11 10 11
6 6 7 7 12 9 13 17 15 16 11 8 9 9 8 5 4 4 5 4 4 6 2 5 1 4 4 4 10 10 9 9 8 8 9 9 9 10
6 7 7 9 8 12 11 9 8 8 9 7 8 8 8 8 7 7 8 5 5 6 3 6 2 4 4 4 12 14 13 13 13 14 13 13 13 13
7 8 10 10 15 20 10 12 8 9 8 14 16 12 12 12 11 4 6 7 8 8 5 5 5 4 4 4 5 15 15 16 16 16 17 17 15 15
7 9 15 14 19 20 12 9 7 9 7 7 6 8 9 9 14 8 6 8 7 7 6 5 6 3 4 4 6 6 4 11 14 16 17 17 17 7
7 8 8 19 19 15 15 7 9 8 8 7 5 6 6 6 6 7 8 8 8 9 4 4 2 2 3 3 2 2 3 3 3 4 12 15 16 13
8 7 8 15 17 15 11 17 14 7 4 4 4 4 4 4 4 4 6 6 8 11 5 7 3 5 3 2 4 2 2 3 2 3 3 7 9 10
6 11 14 15 16 11 14 15 9 5 5 3 4 3 4 5 6 5 4 5 5 7 8 8 6 6 6 5 2 2 0 2 2 2 1 2 2 2
6 5 6 8 7 7 8 8 6 6 5 5 4 4 4 3 4 3 2 3 1 3 5 8 9 8 5 4 3 3 3 2 1 2 3 3 2 3
4 3 4 6 6 6 7 7 7 6 7 6 5 5 5 4 4 4 2 2 1 2 3 3 2 3 4 4 4 5 4 3 3 3 3 5 3 4
4 3 4 5 5 6 7 7 7 8 7 7 6 6 6 6 4 4 2 2 3 3 2 3 2 1 2 1 2 4 3 3 2 3 3 2 5 4
2 3 3 4 4 5 6 6 6 7 8 6 6 7 7 6 6 3 4 3 3 3 3 2 3 2 2 1 2 4 1 1 2 1 2 3 3 4
1 2 3 3 4 5 6 5 6 6 6 6 7 7 7 7 6 6 5 3 3 3 3 3 2 1 1 2 2 3 5 1 1 1 2 2 4 5
2 2 2 2 3 4 3 4 3 5 5 5 6 6 7 7 6 6 5 6 4 3 3 3 4 7 3 2 3 4 4 5 3 1 1 1 2 1
2 2 3 2 2 2 3 3 3 3 5 5 5 5 5 5 6 6 5 4 4 2 3 4 6 4 2 0 2 2 3 4 4 2 1 0 1 2
3 3 2 2 2 2 2 2 3 2 4 4 5 5 5 5 5 4 3 3 3 3 3 4 4 3 2 1 2 1 1 2 1 3 3 5 2 2
Wind_Direction
274 277 289 293 300 329 358 307 294 308 306 285 285 294 298 301 284 255 239 179 156 195 322 312 310 309 257 219 208 203 219 262 32 13 358 5 345 346
278 313 320 326 312 298 282 278 252 256 266 229 267 265 296 319 329 358 286 263 209 187 161 252 273 284 284 228 209 208 211 213 201 27 359 357 341 330
25 15 334 317 318 308 301 303 300 284 282 285 257 309 329 344 336 333 326 318 267 251 238 217 209 239 249 257 228 224 215 210 207 201 200 160 339 351
344 336 324 329 312 290 278 287 280 279 265 249 236 248 249 301 300 317 314 313 321 302 255 250 250 223 224 247 244 230 221 217 213 197 205 209 209 266
331 319 304 305 302 296 289 283 277 279 251 237 241 226 243 264 325 326 336 335 334 340 350 319 265 266 263 243 235 232 220 205 203 206 213 216 220 237
292 293 289 285 286 285 287 293 304 304 287 265 261 241 218 246 210 275 307 327 310 319 321 301 322 336 335 284 250 245 235 221 210 203 204 202 208 239
292 285 288 298 311 306 316 311 308 302 306 302 293 248 248 268 252 233 257 288 279 246 274 285 327 343 327 342 319 293 266 228 216 211 210 207 212 224
279 281 272 293 303 310 300 300 295 283 276 265 268 252 253 237 232 238 227 244 298 256 216 270 294 283 265 281 283 293 291 270 251 224 223 220 217 221
283 285 295 302 310 294 289 288 286 282 273 266 263 252 256 225 231 240 226 213 225 262 202 265 238 248 248 266 265 263 266 266 257 229 218 217 219 226
298 295 292 296 287 299 294 288 273 271 271 265 257 253 240 245 213 241 243 232 248 248 195 260 232 234 251 247 259 262 253 245 241 230 227 228 229 229
308 309 305 310 305 311 314 312 271 271 277 286 288 281 278 270 258 253 251 252 268 265 206 226 241 238 211 241 233 244 246 244 240 234 234 236 236 241
314 308 312 317 317 310 297 281 283 277 274 284 283 282 280 271 270 248 244 245 248 276 222 204 246 164 298 235 223 222 219 244 245 243 238 232 232 234
319 317 316 318 323 346 335 306 285 278 274 263 259 273 270 263 254 243 232 226 233 238 196 165 209 174 205 275 277 237 181 244 215 249 241 241 237 225
313 310 307 347 347 350 356 356 20 357 329 296 281 281 286 280 267 260 251 245 227 238 246 197 232 193 194 236 255 314 258 251 164 238 223 249 249 239
310 339 358 356 351 345 358 0 354 356 343 336 331 318 317 309 308 306 284 270 256 238 242 229 225 236 229 222 210 228 78 302 213 239 184 227 228 203
326 333 339 344 341 350 348 348 347 339 340 335 323 313 302 311 313 310 279 302 268 295 248 239 236 236 242 236 244 249 218 225 202 188 242 272 273 218
347 336 354 353 354 356 354 350 351 350 359 347 339 339 328 321 316 314 291 320 317 299 325 319 244 224 227 246 228 228 217 214 230 238 213 260 264 264
6 340 342 347 352 354 355 348 353 357 358 348 346 343 338 334 340 334 324 341 345 14 6 323 353 177 215 268 297 279 206 215 232 200 200 204 266 251
9 327 320 346 345 353 355 350 350 352 349 350 347 345 345 342 352 336 349 353 344 336 335 339 15 51 53 340 308 37 296 247 164 344 191 207 240 255
349 323 334 339 350 356 359 352 349 349 352 347 347 346 347 344 354 1 356 345 345 342 344 326 356 353 131 218 270 271 358 89 90 261 293 296 261 273
297 330 310 331 343 341 340 336 333 345 342 338 345 345 342 346 353 351 352 353 358 354 335 317 281 277 239 75 18 317 306 351 156 155 289 322 288 319
261 287 304 323 319 319 315 330 340 343 350 346 339 334 334 331 347 346 351 346 341 299 275 288 312 326 39 28 246 234 309 324 332 343 112 301 177 322
238 245 272 287 296 310 318 331 333 319 333 332 331 330 327 333 335 325 317 327 326 325 331 323 332 336 341 37 291 238 313 293 292 330 315 339 2 347